Time,TemperatureF,DewpointF,PressureIn,WindDirection,WindDirectionDegrees,WindSpeedMPH,WindSpeedGustMPH,Humidity,HourlyPrecipIn,Conditions,Clouds,dailyrainin,SoftwareType,DateUTC
2013-01-02 00:03:00,20.6,9.0,29.98,ESE,105,0.0,-999.0,61,-99.99,,,0.00,weatherlink.com 1.10,2013-01-02 05:03:00,
2013-01-02 00:18:00,20.1,9.0,29.97,ESE,105,0.0,-999.0,63,-99.99,,,0.00,weatherlink.com 1.10,2013-01-02 05:18:00,
2013-01-02 00:33:00,19.3,10.0,29.97,ESE,105,0.0,-999.0,66,-99.99,,,0.00,weatherlink.com 1.10,2013-01-02 05:33:00,
2013-01-02 00:48:00,18.6,10.0,29.97,ESE,105,0.0,-999.0,68,-99.99,,,0.00,weatherlink.com 1.10,2013-01-02 05:48:00,
2013-01-02 01:03:00,18.0,10.0,29.97,SE,130,0.0,-999.0,70,-99.99,,,0.00,weatherlink.com 1.10,2013-01-02 06:03:00,
2013-01-02 01:18:00,17.5,10.0,29.98,SE,131,0.0,-999.0,72,-99.99,,,0.00,weatherlink.com 1.10,2013-01-02 06:18:00,
2013-01-02 01:33:00,17.1,10.0,29.99,SE,133,0.0,-999.0,72,-99.99,,,0.00,weatherlink.com 1.10,2013-01-02 06:33:00,
2013-01-02 01:48:00,16.5,9.0,29.99,SE,134,0.0,-999.0,73,-99.99,,,0.00,weatherlink.com 1.10,2013-01-02 06:48:00,
2013-01-02 02:03:00,15.9,9.0,30.00,SE,132,0.0,-999.0,75,-99.99,,,0.00,weatherlink.com 1.10,2013-01-02 07:03:00,
2013-01-02 02:18:00,15.3,9.0,29.99,SE,134,0.0,-999.0,76,-99.99,,,0.00,weatherlink.com 1.10,2013-01-02 07:18:00,
2013-01-02 02:33:00,14.8,9.0,29.99,SE,126,0.0,-999.0,77,-99.99,,,0.00,weatherlink.com 1.10,2013-01-02 07:33:00,
2013-01-02 02:48:00,14.4,8.0,29.99,SE,133,0.0,-999.0,77,-99.99,,,0.00,weatherlink.com 1.10,2013-01-02 07:48:00,
2013-01-02 03:03:00,13.9,9.0,29.99,SE,134,0.0,-999.0,79,-99.99,,,0.00,weatherlink.com 1.10,2013-01-02 08:03:00,
2013-01-02 03:18:00,13.5,8.0,29.99,SE,134,0.0,-999.0,80,-99.99,,,0.00,weatherlink.com 1.10,2013-01-02 08:18:00,
2013-01-02 03:33:00,13.2,8.0,29.99,SE,134,0.0,-999.0,81,-99.99,,,0.00,weatherlink.com 1.10,2013-01-02 08:33:00,
2013-01-02 03:48:00,12.9,8.0,29.99,SE,133,0.0,-999.0,81,-99.99,,,0.00,weatherlink.com 1.10,2013-01-02 08:48:00,
2013-01-02 04:03:00,12.8,8.0,29.99,SE,132,0.0,-999.0,81,-99.99,,,0.00,weatherlink.com 1.10,2013-01-02 09:03:00,
2013-01-02 04:18:00,13.0,8.0,29.99,SE,132,0.0,-999.0,81,-99.99,,,0.00,weatherlink.com 1.10,2013-01-02 09:18:00,
2013-01-02 04:33:00,12.9,8.0,29.99,SE,134,0.0,-999.0,82,-99.99,,,0.00,weatherlink.com 1.10,2013-01-02 09:33:00,
2013-01-02 04:48:00,13.0,9.0,30.00,SE,134,0.0,-999.0,82,-99.99,,,0.00,weatherlink.com 1.10,2013-01-02 09:48:00,
2013-01-02 05:03:00,13.1,8.0,30.00,SE,134,0.0,-999.0,81,-99.99,,,0.00,weatherlink.com 1.10,2013-01-02 10:03:00,
2013-01-02 05:18:00,12.5,8.0,30.00,ESE,106,0.0,-999.0,82,-99.99,,,0.00,weatherlink.com 1.10,2013-01-02 10:18:00,
2013-01-02 05:33:00,11.9,8.0,30.00,SE,134,0.0,-999.0,83,-99.99,,,0.00,weatherlink.com 1.10,2013-01-02 10:33:00,
2013-01-02 05:48:00,11.3,7.0,30.00,SE,128,0.0,-999.0,84,-99.99,,,0.00,weatherlink.com 1.10,2013-01-02 10:48:00,
2013-01-02 06:03:00,11.2,7.0,30.00,SE,129,0.0,-999.0,84,-99.99,,,0.00,weatherlink.com 1.10,2013-01-02 11:03:00,
2013-01-02 06:18:00,10.8,7.0,30.00,SE,129,0.0,-999.0,84,-99.99,,,0.00,weatherlink.com 1.10,2013-01-02 11:18:00,
2013-01-02 06:33:00,10.5,7.0,30.00,ESE,117,0.0,-999.0,85,-99.99,,,0.00,weatherlink.com 1.10,2013-01-02 11:33:00,
2013-01-02 06:48:00,10.0,6.0,29.99,SE,134,0.0,-999.0,85,-99.99,,,0.00,weatherlink.com 1.10,2013-01-02 11:48:00,
2013-01-02 07:03:00,9.8,7.0,30.00,SE,134,0.0,-999.0,87,-99.99,,,0.00,weatherlink.com 1.10,2013-01-02 12:03:00,
2013-01-02 07:18:00,10.0,7.0,29.99,SE,134,0.0,-999.0,86,-99.99,,,0.00,weatherlink.com 1.10,2013-01-02 12:18:00,
2013-01-02 07:33:00,9.6,6.0,29.99,SE,134,0.0,-999.0,86,-99.99,,,0.00,weatherlink.com 1.10,2013-01-02 12:33:00,
2013-01-02 07:48:00,9.6,7.0,29.99,SE,134,0.0,-999.0,87,-99.99,,,0.00,weatherlink.com 1.10,2013-01-02 12:48:00,
2013-01-02 08:03:00,9.5,6.0,29.99,SE,134,0.0,-999.0,87,-99.99,,,0.00,weatherlink.com 1.10,2013-01-02 13:03:00,
2013-01-02 08:18:00,9.8,7.0,30.01,SE,134,0.0,-999.0,88,-99.99,,,0.00,weatherlink.com 1.10,2013-01-02 13:18:00,
2013-01-02 08:33:00,9.9,7.0,30.01,SE,134,1.0,-999.0,88,-99.99,,,0.00,weatherlink.com 1.10,2013-01-02 13:33:00,
2013-01-02 08:48:00,11.2,8.0,30.01,SE,134,0.0,-999.0,88,-99.99,,,0.00,weatherlink.com 1.10,2013-01-02 13:48:00,
2013-01-02 09:03:00,11.9,9.0,30.02,SE,134,0.0,-999.0,87,-99.99,,,0.00,weatherlink.com 1.10,2013-01-02 14:03:00,
2013-01-02 09:18:00,12.8,10.0,30.02,SE,134,0.0,-999.0,88,-99.99,,,0.00,weatherlink.com 1.10,2013-01-02 14:18:00,
2013-01-02 09:33:00,14.3,11.0,30.03,SE,134,0.0,-999.0,86,-99.99,,,0.00,weatherlink.com 1.10,2013-01-02 14:33:00,
2013-01-02 09:48:00,15.8,12.0,30.03,ESE,117,1.0,-999.0,84,-99.99,,,0.00,weatherlink.com 1.10,2013-01-02 14:48:00,
2013-01-02 10:03:00,17.6,12.0,30.03,ESE,115,0.0,-999.0,80,-99.99,,,0.00,weatherlink.com 1.10,2013-01-02 15:03:00,
2013-01-02 10:18:00,18.6,12.0,30.03,ESE,103,0.0,-999.0,76,-99.99,,,0.00,weatherlink.com 1.10,2013-01-02 15:18:00,
2013-01-02 10:33:00,19.3,13.0,30.02,ENE,76,0.0,-999.0,75,-99.99,,,0.00,weatherlink.com 1.10,2013-01-02 15:33:00,
2013-01-02 10:48:00,20.7,12.0,30.01,SE,132,0.0,-999.0,70,-99.99,,,0.00,weatherlink.com 1.10,2013-01-02 15:48:00,
2013-01-02 11:03:00,22.7,13.0,30.01,SW,218,1.0,-999.0,66,-99.99,,,0.00,weatherlink.com 1.10,2013-01-02 16:03:00,
2013-01-02 11:18:00,23.7,13.0,30.00,WSW,241,2.0,-999.0,64,-99.99,,,0.00,weatherlink.com 1.10,2013-01-02 16:18:00,
2013-01-02 11:33:00,24.2,13.0,30.00,SSE,150,0.0,-999.0,63,-99.99,,,0.00,weatherlink.com 1.10,2013-01-02 16:33:00,
2013-01-02 11:48:00,24.7,13.0,29.99,WSW,254,1.0,-999.0,62,-99.99,,,0.00,weatherlink.com 1.10,2013-01-02 16:48:00,
2013-01-02 12:03:00,24.7,14.0,29.99,SE,142,0.0,-999.0,63,-99.99,,,0.00,weatherlink.com 1.10,2013-01-02 17:03:00,
2013-01-02 12:18:00,25.0,14.0,29.99,SE,143,1.0,-999.0,63,-99.99,,,0.00,weatherlink.com 1.10,2013-01-02 17:18:00,
2013-01-02 12:33:00,25.6,14.0,29.99,WSW,241,0.0,-999.0,63,-99.99,,,0.00,weatherlink.com 1.10,2013-01-02 17:33:00,
2013-01-02 12:48:00,25.9,14.0,29.98,East,86,0.0,-999.0,61,-99.99,,,0.00,weatherlink.com 1.10,2013-01-02 17:48:00,
2013-01-02 13:03:00,26.2,15.0,29.98,South,175,0.0,-999.0,63,-99.99,,,0.00,weatherlink.com 1.10,2013-01-02 18:03:00,
2013-01-02 13:18:00,26.4,15.0,29.99,SW,215,2.0,-999.0,63,-99.99,,,0.00,weatherlink.com 1.10,2013-01-02 18:18:00,
2013-01-02 13:33:00,26.5,15.0,29.98,South,186,1.0,-999.0,62,-99.99,,,0.00,weatherlink.com 1.10,2013-01-02 18:33:00,
2013-01-02 13:48:00,26.6,15.0,29.99,ENE,74,1.0,-999.0,62,-99.99,,,0.00,weatherlink.com 1.10,2013-01-02 18:48:00,
2013-01-02 14:03:00,26.9,16.0,30.01,ESE,123,0.0,-999.0,63,-99.99,,,0.00,weatherlink.com 1.10,2013-01-02 19:03:00,
2013-01-02 14:18:00,26.9,16.0,30.01,ENE,66,0.0,-999.0,63,-99.99,,,0.00,weatherlink.com 1.10,2013-01-02 19:18:00,
2013-01-02 14:33:00,26.9,16.0,30.01,South,172,0.0,-999.0,64,-99.99,,,0.00,weatherlink.com 1.10,2013-01-02 19:33:00,
2013-01-02 14:48:00,27.0,16.0,30.03,SSE,162,0.0,-999.0,64,-99.99,,,0.00,weatherlink.com 1.10,2013-01-02 19:48:00,
2013-01-02 15:03:00,27.1,17.0,30.03,SE,126,1.0,-999.0,65,-99.99,,,0.00,weatherlink.com 1.10,2013-01-02 20:03:00,
2013-01-02 15:18:00,27.1,17.0,30.03,SE,135,1.0,-999.0,65,-99.99,,,0.00,weatherlink.com 1.10,2013-01-02 20:18:00,
2013-01-02 15:34:00,27.1,17.0,30.03,ESE,105,0.0,-999.0,65,-99.99,,,0.00,weatherlink.com 1.10,2013-01-02 20:34:00,
2013-01-02 15:48:00,27.1,17.0,30.03,SE,142,1.0,-999.0,66,-99.99,,,0.00,weatherlink.com 1.10,2013-01-02 20:48:00,
2013-01-02 16:03:00,27.0,17.0,30.04,SSE,150,0.0,-999.0,65,-99.99,,,0.00,weatherlink.com 1.10,2013-01-02 21:03:00,
2013-01-02 16:18:00,26.9,17.0,30.04,SSW,198,0.0,-999.0,65,-99.99,,,0.00,weatherlink.com 1.10,2013-01-02 21:18:00,
2013-01-02 16:33:00,26.9,17.0,30.05,SSE,150,0.0,-999.0,65,-99.99,,,0.00,weatherlink.com 1.10,2013-01-02 21:33:00,
2013-01-02 16:48:00,26.7,16.0,30.05,WSW,237,0.0,-999.0,65,-99.99,,,0.00,weatherlink.com 1.10,2013-01-02 21:48:00,
2013-01-02 17:03:00,26.6,16.0,30.05,SW,236,0.0,-999.0,65,-99.99,,,0.00,weatherlink.com 1.10,2013-01-02 22:03:00,
2013-01-02 17:19:00,26.5,16.0,30.06,SW,234,0.0,-999.0,66,-99.99,,,0.00,weatherlink.com 1.10,2013-01-02 22:19:00,
2013-01-02 17:34:00,26.3,16.0,30.07,South,179,0.0,-999.0,65,-99.99,,,0.00,weatherlink.com 1.10,2013-01-02 22:34:00,
2013-01-02 17:49:00,26.3,16.0,30.07,ESE,120,0.0,-999.0,65,-99.99,,,0.00,weatherlink.com 1.10,2013-01-02 22:49:00,
2013-01-02 18:04:00,26.1,16.0,30.07,ESE,120,0.0,-999.0,66,-99.99,,,0.00,weatherlink.com 1.10,2013-01-02 23:04:00,
2013-01-02 18:19:00,25.6,17.0,30.08,ESE,120,0.0,-999.0,69,-99.99,,,0.00,weatherlink.com 1.10,2013-01-02 23:19:00,
2013-01-02 18:34:00,25.1,16.0,30.08,ESE,120,0.0,-999.0,69,-99.99,,,0.00,weatherlink.com 1.10,2013-01-02 23:34:00,
2013-01-02 18:49:00,24.9,17.0,30.09,ESE,120,0.0,-999.0,71,-99.99,,,0.00,weatherlink.com 1.10,2013-01-02 23:49:00,
2013-01-02 19:04:00,24.9,17.0,30.09,ESE,120,0.0,-999.0,72,-99.99,,,0.00,weatherlink.com 1.10,2013-01-03 00:04:00,
2013-01-02 19:19:00,24.5,17.0,30.09,ESE,120,0.0,-999.0,73,-99.99,,,0.00,weatherlink.com 1.10,2013-01-03 00:19:00,
2013-01-02 19:34:00,24.2,17.0,30.09,ESE,120,0.0,-999.0,75,-99.99,,,0.00,weatherlink.com 1.10,2013-01-03 00:34:00,
2013-01-02 19:49:00,23.9,17.0,30.09,ESE,120,0.0,-999.0,76,-99.99,,,0.00,weatherlink.com 1.10,2013-01-03 00:49:00,
2013-01-02 20:04:00,23.8,18.0,30.09,ESE,120,0.0,-999.0,77,-99.99,,,0.00,weatherlink.com 1.10,2013-01-03 01:04:00,
2013-01-02 20:19:00,23.3,17.0,30.09,ESE,119,0.0,-999.0,78,-99.99,,,0.00,weatherlink.com 1.10,2013-01-03 01:19:00,
2013-01-02 20:34:00,22.6,17.0,30.10,ESE,119,0.0,-999.0,79,-99.99,,,0.00,weatherlink.com 1.10,2013-01-03 01:34:00,
2013-01-02 20:49:00,22.3,17.0,30.10,ESE,119,0.0,-999.0,80,-99.99,,,0.00,weatherlink.com 1.10,2013-01-03 01:49:00,
2013-01-02 21:04:00,22.1,17.0,30.11,ESE,119,0.0,-999.0,80,-99.99,,,0.00,weatherlink.com 1.10,2013-01-03 02:04:00,
2013-01-02 21:19:00,22.0,17.0,30.12,ESE,119,0.0,-999.0,80,-99.99,,,0.00,weatherlink.com 1.10,2013-01-03 02:19:00,
2013-01-02 21:34:00,21.7,17.0,30.12,ESE,119,0.0,-999.0,81,-99.99,,,0.00,weatherlink.com 1.10,2013-01-03 02:34:00,
2013-01-02 21:49:00,21.7,16.0,30.13,ESE,119,0.0,-999.0,80,-99.99,,,0.00,weatherlink.com 1.10,2013-01-03 02:49:00,
2013-01-02 22:04:00,21.5,17.0,30.13,ESE,119,0.0,-999.0,81,-99.99,,,0.00,weatherlink.com 1.10,2013-01-03 03:04:00,
2013-01-02 22:19:00,21.3,17.0,30.14,ESE,120,0.0,-999.0,82,-99.99,,,0.00,weatherlink.com 1.10,2013-01-03 03:19:00,
2013-01-02 22:34:00,21.0,16.0,30.14,ESE,119,0.0,-999.0,82,-99.99,,,0.00,weatherlink.com 1.10,2013-01-03 03:34:00,
2013-01-02 22:49:00,20.6,16.0,30.15,ESE,119,0.0,-999.0,83,-99.99,,,0.00,weatherlink.com 1.10,2013-01-03 03:49:00,
2013-01-02 23:19:00,20.3,16.0,30.15,ESE,119,0.0,-999.0,83,-99.99,,,0.00,weatherlink.com 1.10,2013-01-03 04:19:00,
2013-01-02 23:34:00,20.1,15.0,30.15,ESE,120,0.0,-999.0,82,-99.99,,,0.00,weatherlink.com 1.10,2013-01-03 04:34:00,
2013-01-02 23:49:00,20.1,15.0,30.15,ESE,120,0.0,-999.0,81,-99.99,,,0.00,weatherlink.com 1.10,2013-01-03 04:49:00,